Regional Weather Roundup
Issued by NWS

Home | Current Version | Previous Version | Graphics & Text | Print | Product List | Glossary On
Versions: 1 2 3 4 5 6 7 8 9 10 11 12 13 14 15 16 17 18 19 20 21 22 23 24 25 26 27 28 29 30 31 32 33 34 35 36 37 38 39 40 41 42 43 44 45 46 47 48 49 50
000
ASUS43 KOAX 231510
RWRNE

WEATHER ROUNDUP FOR NEBRASKA
NATIONAL WEATHER SERVICE OMAHA NE
1000 AM CDT THU OCT 23 2014

NOTES: SATELLITE DATA IS BEING USED TO AUGMENT CLOUD COVER ABOVE
       12000 FEET.
       "FAIR" INDICATES FEW OR NO CLOUDS BELOW 12,000 FEET WITH NO
       SIGNIFICANT WEATHER AND/OR OBSTRUCTIONS TO VISIBILITY.

  * THESE STATIONS DO NOT REPORT WEATHER SUCH AS RAIN...SNOW OR FOG.

NEZ001>004-019>022-054>056-231600-
NEBRASKA PANHANDLE

CITY           SKY/WX    TMP DP  RH WIND       PRES   REMARKS
SCOTTSBLUFF    PTSUNNY   40  34  79 CALM      30.11R
ALLIANCE       PTSUNNY   42  35  76 W3        30.07F
CHADRON        PTSUNNY   43  32  65 W3        30.04S
KIMBALL        MOSUNNY   46  38  74 W3        30.13R
SIDNEY         MOSUNNY   50  38  63 SW6       30.13R
$$

NEZ057>060-069>072-079>082-231600-
SOUTHWEST NEBRASKA

CITY           SKY/WX    TMP DP  RH WIND       PRES   REMARKS
NORTH PLATTE   SUNNY     45  42  89 NW3       30.11R
IMPERIAL       SUNNY     49  37  63 W6        30.13R
LEXINGTON      FOG       49  48  97 W5        30.11S VSB<1/4
MCCOOK         FOG       46  45  96 SW7       30.13R VSB<1/4
OGALLALA       SUNNY     46  40  80 W5        30.12S
$$

NEZ005>010-023>029-035>040-094-231600-
NORTH CENTRAL NEBRASKA

CITY           SKY/WX    TMP DP  RH WIND       PRES   REMARKS
VALENTINE      SUNNY     45  39  79 SW8       30.05R
AINSWORTH      SUNNY     48  45  87 SW8       30.04F
BROKEN BOW     FOG       48  48 100 CALM      30.09R VSB 1/4
O`NEILL        SUNNY     50  50 100 SW6       30.07S
ORD            FOG       41  41 100 CALM      30.09R VSB 1/4
THEDFORD       SUNNY     50  46  85 SW8       30.09R
$$

NEZ041-046>049-061>064-073>077-083>087-231600-
SOUTH CENTRAL NEBRASKA

CITY           SKY/WX    TMP DP  RH WIND       PRES   REMARKS
GRAND ISLAND   FOG       48  47  96 SW5       30.11R VSB<1/4
AURORA         FOG       51  51 100 SW6       30.10R VSB<1/4
HASTINGS       FOG       51  49  92 S3        30.11R VSB<1/4
HEBRON         FOG       56  55  94 CALM      30.09R VSB<1/4
HOLDREGE       FOG       48  47  97 CALM      30.11R VSB<1/4
KEARNEY *      CLOUDY    46  46 100 CALM      30.12R VSB<1/4
YORK           CLOUDY    54  54 100 SW5       30.10R FOG
$$

NEZ011>018-030>034-042>045-231600-
NORTHEAST NEBRASKA

CITY           SKY/WX    TMP DP  RH WIND       PRES   REMARKS
NORFOLK        SUNNY     50  48  93 W3        30.07R
ALBION         SUNNY     48  46  94 CALM      30.09R
BLAIR          FOG       55  53  94 CALM      30.08R VSB 3/4
COLUMBUS *     PTSUNNY   48  46  93 W5        30.10R
FREMONT        FOG       52  52  97 W3        30.08R VSB 1/2
WAYNE          SUNNY     52  49  90 CALM      30.06F
$$

NEZ050>053-065>068-078-088>093-231600-
SOUTHEAST NEBRASKA

CITY           SKY/WX    TMP DP  RH WIND       PRES   REMARKS
LINCOLN        FOG       55  54  96 CALM      30.09R VSB 1/2
OMAHA EPPLEY   CLOUDY    59  56  89 N8        30.07R FOG
BEATRICE       CLOUDY    58  58 100 CALM      30.09R FOG
FALLS CITY     CLOUDY    63  60  90 SW9       30.06S
NEBRASKA CITY  SUNNY     63  62  99 W9        30.07S
PLATTSMOUTH    CLOUDY    60  56  88 CALM      30.07R
$$

NEZ044-045-051>053-067-231600-
OMAHA AREA

CITY           SKY/WX    TMP DP  RH WIND       PRES   REMARKS
OMAHA EPPLEY   CLOUDY    59  56  89 N8        30.07R FOG
BLAIR          FOG       55  53  94 CALM      30.08R VSB 3/4
FREMONT        FOG       52  52  97 W3        30.08R VSB 1/2
MILLARD        CLOUDY    59  56  87 W3        30.07R FOG
OFFUTT AFB     CLOUDY    61  61 100 SW6       30.06R
PLATTSMOUTH    CLOUDY    60  56  88 CALM      30.07R
WAHOO          FAIR      56  53  88 CALM      30.08R
$$



USA.gov is the U.S. government's official web portal to all federal, state and local government web resources and services.